Location: Columbus
(29.5618°N, 96.6770°W)
Time: 17:59:34
(UTC-05:00)

Daily predictions for brighter satellites

Satellite Brightness Start Highest point End
(mag) Time Altitude Azimuth Time Altitude Azimuth Time Altitude Azimuth
Meteor 1-21 Rocket 4.3 20:49:00 10° S 20:54:25 59° E 20:59:50 10° NNE
USA 229 DEB 4.5 20:50:16 10° SW 20:57:03 60° WNW 21:03:56 10° NNE
CZ-4B DEB 3.4 20:53:49 10° S 20:57:06 60° W 21:00:23 10° NNW
USA 229 4.4 20:50:20 10° SW 20:57:09 61° WNW 21:04:02 10° NNE
Cosmos 2219 3.7 20:52:36 10° S 20:57:50 38° ESE 21:03:05 10° NE
Resurs 1-3 4.4 20:53:53 10° S 20:58:09 54° W 21:02:27 10° NNW
ATLAS CENTAUR R/B 2.7 20:58:16 10° NW 21:02:17 37° WSW 21:05:57 10° S
Cosmos 1441 Rocket 3.1 20:59:19 10° S 21:03:05 82° E 21:06:50 10° N
In-Cosmos 22 4.4 21:00:08 10° S 21:05:54 87° W 21:11:41 10° N
FENGYUN 3A 3.7 21:01:01 10° SSE 21:06:22 67° ENE 21:11:45 10° N
Cosmos 1538 Rocket 4.1 21:01:17 10° NNW 21:06:39 75° ENE 21:12:01 10° SSE
GPS 2-04 Rocket1 4.1 21:05:28 10° W 21:09:25 33° SSW 21:13:20 10° SSE
Cosmos 2266 Rocket 4.3 21:03:50 10° SSE 21:09:50 47° E 21:15:43 10° NNE
USA 186 0.9 21:07:48 10° SSE 21:09:58 57° E 21:12:14 10° N
Cosmos 2322 Rocket 2.3 21:04:57 10° NNW 21:10:34 83° WSW 21:16:11 10° SSE
NOSS 3-1 (A) 3.6 21:11:21 10° S 21:16:44 43° ESE 21:22:29 10° NE
Cosmos 773 Rocket 4.3 21:11:41 10° N 21:16:45 50° ENE 21:21:37 11° SSE
Cosmos 1980 Rocket 4.4 21:12:46 10° NW 21:17:10 24° W 21:21:36 10° SSW
Cosmos 2360 Rocket 3.0 21:12:54 10° N 21:18:05 36° ENE 21:22:32 13° SE
Meteor 2-20 4.4 21:12:08 10° S 21:18:13 69° E 21:24:18 10° NNE
Cosmos 1553 Rocket 4.0 21:15:59 10° N 21:22:22 84° E 21:28:37 10° S
H-2A R/B 3.2 21:19:17 13° SE 21:22:34 28° ENE 21:26:26 10° NNE
SL-16 R/B 2.5 21:17:59 10° NNW 21:23:37 67° WSW 21:29:12 10° S
Cosmos 1437 3.1 21:20:42 10° SSE 21:23:49 42° E 21:26:56 10° NNE
OTV 4 0.5 21:22:34 10° WSW 21:25:32 78° NNW 21:28:30 10° ENE
Cosmos 1328 Rocket 3.7 21:22:37 10° N 21:27:04 78° W 21:31:27 10° S
Cosmos 1674 2.6 21:23:54 10° S 21:27:42 77° E 21:31:34 10° N
YAOGAN 11 4.0 21:26:06 10° SSE 21:30:22 72° ENE 21:34:43 10° N
Cosmos 1908 3.4 21:30:17 10° N 21:34:07 56° E 21:37:03 16° SSE
ATLAS 2AS CENTAUR R/B 3.7 21:33:08 10° SSE 21:38:51 26° ESE 21:44:56 10° NE
Cosmos 2227 Rocket 3.4 21:39:38 19° ESE 21:40:52 20° E 21:44:51 10° NE
ALOS 3.4 21:37:57 10° S 21:42:22 42° W 21:46:48 10° NNW
ERBS 2.5 21:39:55 10° SSW 21:43:18 48° SE 21:46:42 10° NE
ERS-1 Rocket 2.9 21:39:29 14° SSE 21:43:50 76° ENE 21:48:52 10° N
Tiangong 1 4.1 21:44:06 10° WNW 21:46:08 16° NNW 21:48:09 10° NNE
OAO 2 Rocket 3.8 21:41:37 10° W 21:46:53 64° NNW 21:52:11 10° ENE
Envisat 3.3 21:45:26 21° SE 21:48:31 48° ENE 21:53:22 10° N
Cosmos 1300 4.1 21:46:22 10° NNE 21:49:23 22° E 21:49:47 21° E
Sakura Rocket 3.2 21:49:17 10° WSW 21:53:37 42° SSE 21:54:47 33° SE
Meteor 1-11 4.4 21:50:04 15° SSE 21:54:47 53° E 22:00:20 10° NNE
Cosmos 2151 3.2 21:51:59 10° SSW 21:56:08 68° W 22:00:19 10° N
Nadezhda 2 Rocket 4.4 21:53:10 10° S 21:59:19 82° E 22:05:25 10° N
Cosmos 2058 2.7 21:57:47 21° S 22:00:23 74° E 22:04:28 10° N
NOSS 3-1 (C) 4.0 21:56:32 10° SW 22:02:09 56° WNW 22:08:16 10° NNE
Hubble Space Telescope 0.9 21:58:47 10° WSW 22:02:47 49° SSE 22:03:43 40° SE
ARGOS 4.4 22:03:30 21° E 22:04:56 24° ENE 22:09:09 10° NNE
Cosmos 2333 Rocket 4.0 22:02:30 10° NNE 22:05:51 16° ENE 22:07:32 14° E
Cosmos 1937 Rocket 3.6 22:03:27 22° S 22:06:36 52° ESE 22:11:39 10° NNE
Cosmos 2297 Rocket 3.3 22:07:58 23° E 22:07:58 23° E 22:11:52 10° NE
Cosmos 2112 Rocket 3.9 22:06:23 10° NNW 22:11:40 86° ENE 22:14:10 32° SSE
SWAS 4.4 22:07:43 10° NNW 22:12:03 86° ENE 22:13:24 43° SSE
Cosmos 990 Rocket 4.3 22:13:15 38° SE 22:14:09 41° ESE 22:18:58 10° NNE
PSLV R/B 3.5 22:17:20 54° NE 22:17:20 54° NE 22:19:56 10° N
Cosmos 2219 Rocket 3.4 22:13:04 10° N 22:17:40 26° ENE 22:18:54 24° E
COSMOS 2428 2.9 22:12:30 10° N 22:18:05 57° ENE 22:19:59 39° SE
Cosmos 2298 Rocket 4.4 22:12:58 10° SSW 22:18:15 66° WNW 22:23:33 10° N
Sich 1 3.0 22:17:18 44° SSE 22:18:36 70° E 22:22:59 10° NNE
Cosmos 1726 2.8 22:15:33 10° N 22:18:49 40° ENE 22:18:49 40° ENE
Cosmos 1939 Rocket 3.5 22:19:34 29° SSW 22:21:15 49° W 22:25:02 10° NNW
Cosmos 304 Rocket 4.4 22:18:26 10° NNW 22:23:05 50° WSW 22:25:23 27° SSW
Cosmos 1633 Rocket 2.9 22:24:02 51° S 22:25:06 79° E 22:29:29 10° N
SPOT 5 2.8 22:30:38 46° S 22:31:56 75° WSW 22:36:43 10° NNW
Cosmos 2242 Rocket 4.0 22:27:48 10° N 22:31:58 45° ENE 22:31:58 45° ENE
Meteor 1-4 Rocket 3.8 22:28:43 10° N 22:31:14 32° NE 22:31:14 32° NE
CZ-4B R/B 3.4 22:27:50 10° NNE 22:33:05 89° ESE 22:35:20 35° SSW
SL-23 DEB 4.0 22:33:14 10° NW 22:37:09 55° NNE 22:37:09 55° NNE
DELTA 2 R/B (1) 3.5 22:33:25 10° WNW 22:38:59 78° SSW 22:40:00 59° SE
Cosmos 2237 4.2 22:33:52 10° NNW 22:39:36 83° WSW 22:41:10 50° S
MetOp-B 4.2 22:44:24 49° S 22:45:51 74° WSW 22:51:13 10° NNW
H-2A R/B 3.2 22:46:30 29° ENE 22:46:30 29° ENE 22:51:06 10° NNE
Cosmos 292 Rocket 3.9 22:42:02 10° N 22:46:35 57° ENE 22:46:35 57° ENE
Cosmos 2082 3.6 22:49:35 39° SSW 22:51:49 87° WNW 22:57:34 10° NNE
Cosmos 2237 Rocket 3.1 22:47:17 10° N 22:52:26 34° ENE 22:52:39 34° ENE
Cosmos 1271 Rocket 3.5 22:49:24 10° N 22:52:15 47° N 22:52:15 47° N
Cosmos 1626 4.0 22:56:29 25° NNE 22:56:29 25° NNE 22:58:10 10° NNE
Cosmos 2333 4.1 22:50:19 10° NNW 22:56:04 82° WSW 22:56:57 65° S
H-2A R/B 4.4 22:56:25 15° SW 22:58:29 19° W 23:01:45 10° NW
Cosmos 1703 4.0 22:59:02 50° NW 22:59:02 50° NW 23:02:24 10° N
Cosmos 1125 Rocket 4.4 23:00:29 35° ENE 23:00:29 35° ENE 23:03:57 10° NNE
SPOT 1/Viking Rocket 3.4 22:58:29 72° SSW 22:58:57 80° WSW 23:04:07 10° NNW
NOAA 11 4.0 22:59:50 76° SE 23:00:13 82° ENE 23:05:41 10° N
YAOGAN 6 4.0 23:02:03 37° WNW 23:02:03 37° WNW 23:04:45 10° NNW
Cosmos 2360 Rocket 4.1 22:57:28 10° NW 23:01:46 23° W 23:04:20 17° SW
OTV 4 3.4 22:59:52 10° WNW 23:01:14 17° NW 23:01:14 17° NW
Terra 2.9 23:09:58 35° NE 23:09:58 35° NE 23:13:18 10° N
SL-08 RB Rocket 4.1 23:11:03 60° NNW 23:11:03 60° NNW 23:14:46 10° NNW
Cosmos 1933 Rocket 4.5 23:20:22 47° NW 23:20:22 47° NW 23:24:09 10° N
Cosmos 2227 Rocket 3.3 23:21:20 22° WSW 23:24:32 40° WNW 23:29:50 10° N
ATLAS 2AS CENTAUR R/B 3.6 23:22:11 10° SW 23:29:17 53° WNW 23:37:01 10° NNE
Nadezhda 1 Rocket 3.9 23:25:49 10° N 23:31:54 74° W 23:32:01 74° WSW
OAO 2 Rocket 4.3 23:27:04 10° WNW 23:32:12 46° N 23:32:37 45° NNE
NOSS 0 Rocket 4.0 23:31:37 10° NNW 23:37:28 68° W 23:37:28 68° W
Lacrosse 4 Rocket 3.7 23:38:04 10° N 23:40:03 21° NNE 23:40:03 21° NNE
ARGOS 4.4 23:45:02 33° W 23:45:02 33° W 23:49:44 10° NW
ATLAS 3B R/B 3.2 23:40:08 10° NNW 23:46:35 44° NE 23:46:35 44° NE
Cosmos 1709 Rocket 4.0 23:47:29 72° NNW 23:47:29 72° NNW 23:53:02 10° N
SL-16 R/B 3.2 23:42:05 10° N 23:46:17 38° NE 23:46:17 38° NE
Cosmos 2333 Rocket 2.8 23:44:49 10° NNW 23:49:33 52° WNW 23:49:33 52° WNW
Cosmos 2297 Rocket 3.5 23:49:41 29° W 23:51:13 34° WNW 23:56:20 10° N
